,,Stat6,,Stat2,,Stat8,,Stat9,,Stat10,,Wind1,,Wind1,
time,status,PA1M_AVG,status,PR1M_SUM,status,RH1M_AVG,status,SR1M_AVG,status,TA1M_AVG,status,W1dAve1m,status,W1sAve1m,
2007-11-05, 00:00:00,VALID,917.991,VALID,0,VALID,100,VALID,-0.0339617,VALID,18.5861,VALID,35,VALID,0.823686,
2007-11-05, 00:01:00,VALID,917.992,VALID,0,VALID,100,VALID,0,VALID,18.5799,VALID,39,VALID,1.21609,
2007-11-05, 00:02:00,VALID,917.995,VALID,0,VALID,100,VALID,-0.0169808,VALID,18.5831,VALID,63,VALID,1.1069,
2007-11-05, 00:03:00,VALID,917.993,VALID,0,VALID,100,VALID,-0.0169808,VALID,18.5929,VALID,47,VALID,0.975654,
2007-11-05, 00:04:00,VALID,917.984,VALID,0,VALID,100,VALID,-0.0169808,VALID,18.5799,VALID,54,VALID,1.08389,
2007-11-05, 00:05:00,VALID,917.993,VALID,0,VALID,100,VALID,-0.0339617,VALID,18.5704,VALID,44,VALID,1.06758,
2007-11-05, 00:06:00,VALID,917.983,VALID,0,VALID,100,VALID,0,VALID,18.5505,VALID,69,VALID,1.6351,
2007-11-05, 00:07:00,VALID,917.977,VALID,0,VALID,100,VALID,-0.0169808,VALID,18.5607,VALID,72,VALID,1.36879,
2007-11-05, 00:08:00,VALID,917.948,VALID,0,VALID,100,VALID,0,VALID,18.5792,VALID,54,VALID,1.1689,
2007-11-05, 00:09:00,VALID,917.954,VALID,0,VALID,99.9504,VALID,0,VALID,18.5859,VALID,61,VALID,0.891513,
2007-11-05, 00:10:00,VALID,917.925,VALID,0,VALID,99.9138,VALID,-0.0169808,VALID,18.6026,VALID,63,VALID,0.546303,
2007-11-05, 00:11:00,VALID,917.897,VALID,0,VALID,99.9746,VALID,-0.0169808,VALID,18.6158,VALID,65,VALID,0.792791,
2007-11-05, 00:12:00,VALID,917.868,VALID,0,VALID,99.7892,VALID,0,VALID,18.5956,VALID,78,VALID,1.1036,
2007-11-05, 00:13:00,VALID,917.841,VALID,0,VALID,99.7078,VALID,0,VALID,18.5986,VALID,67,VALID,0.900343,
2007-11-05, 00:14:00,VALID,917.819,VALID,0,VALID,99.6709,VALID,-0.0169808,VALID,18.5926,VALID,70,VALID,1.07329,
2007-11-05, 00:15:00,VALID,917.8,VALID,0,VALID,99.5247,VALID,0,VALID,18.5894,VALID,78,VALID,1.17392,
2007-11-05, 00:16:00,VALID,917.774,VALID,0,VALID,99.5616,VALID,0,VALID,18.5956,VALID,83,VALID,1.12269,
2007-11-05, 00:17:00,VALID,917.766,VALID,0,VALID,99.4992,VALID,0.0169808,VALID,18.6026,VALID,68,VALID,1.09392,
2007-11-05, 00:18:00,VALID,917.761,VALID,0,VALID,99.4675,VALID,0,VALID,18.5859,VALID,60,VALID,0.767223,
2007-11-05, 00:19:00,VALID,917.749,VALID,0,VALID,99.5641,VALID,0,VALID,18.5991,VALID,62,VALID,0.697266,
2007-11-05, 00:20:00,VALID,917.728,VALID,0,VALID,99.5997,VALID,0,VALID,18.5894,VALID,61,VALID,0.51669,
2007-11-05, 00:21:00,VALID,917.733,VALID,0,VALID,99.7981,VALID,-0.0169808,VALID,18.5956,VALID,61,VALID,0.39755,
2007-11-05, 00:22:00,VALID,917.735,VALID,0,VALID,99.8769,VALID,0,VALID,18.5989,VALID,61,VALID,0.425877,
2007-11-05, 00:23:00,VALID,917.732,VALID,0,VALID,99.793,VALID,-0.0169808,VALID,18.5699,VALID,61,VALID,0.653963,
2007-11-05, 00:24:00,VALID,917.729,VALID,0,VALID,99.7714,VALID,0,VALID,18.5342,VALID,61,VALID,0.546684,
2007-11-05, 00:25:00,VALID,917.724,VALID,0,VALID,99.9087,VALID,0.0339617,VALID,18.4921,VALID,61,VALID,0.524117,
2007-11-05, 00:26:00,VALID,917.722,VALID,0,VALID,99.999,VALID,0,VALID,18.4823,VALID,61,VALID,0.590554,
2007-11-05, 00:27:00,VALID,917.693,VALID,0,VALID,100,VALID,-0.0509425,VALID,18.4636,VALID,61,VALID,0.656795,
2007-11-05, 00:28:00,VALID,917.683,VALID,0,VALID,100,VALID,-0.0169808,VALID,18.4501,VALID,61,VALID,0.597747,
2007-11-05, 00:29:00,VALID,917.656,VALID,0,VALID,100,VALID,0,VALID,18.4631,VALID,57,VALID,0.646076,
2007-11-05, 00:30:00,VALID,917.644,VALID,0,VALID,100,VALID,-0.0339617,VALID,18.4661,VALID,62,VALID,0.743331,
2007-11-05, 00:31:00,VALID,917.623,VALID,0,VALID,100,VALID,-0.0339617,VALID,18.4596,VALID,60,VALID,0.895833,
2007-11-05, 00:32:00,VALID,917.6,VALID,0,VALID,100,VALID,0.0169808,VALID,18.4789,VALID,66,VALID,0.787109,
2007-11-05, 00:33:00,VALID,917.595,VALID,0,VALID,99.8433,VALID,-0.0339617,VALID,18.4791,VALID,63,VALID,1.16973,
2007-11-05, 00:34:00,VALID,917.58,VALID,0,VALID,99.6099,VALID,0,VALID,18.4958,VALID,66,VALID,0.87128,
2007-11-05, 00:35:00,VALID,917.568,VALID,0,VALID,99.5755,VALID,-0.0169808,VALID,18.5183,VALID,64,VALID,0.939503,
2007-11-05, 00:36:00,VALID,917.545,VALID,0,VALID,99.2475,VALID,-0.0679233,VALID,18.5053,VALID,67,VALID,1.27437,
2007-11-05, 00:37:00,VALID,917.521,VALID,0,VALID,99.1292,VALID,-0.0169808,VALID,18.5345,VALID,69,VALID,1.1527,
2007-11-05, 00:38:00,VALID,917.504,VALID,0,VALID,98.8927,VALID,-0.0339617,VALID,18.547,VALID,56,VALID,1.12482,
2007-11-05, 00:39:00,VALID,917.491,VALID,0,VALID,98.6422,VALID,-0.0169808,VALID,18.5701,VALID,59,VALID,1.06305,
2007-11-05, 00:40:00,VALID,917.451,VALID,0,VALID,98.5087,VALID,-0.0169808,VALID,18.5732,VALID,58,VALID,1.23761,
2007-11-05, 00:41:00,VALID,917.435,VALID,0,VALID,98.6104,VALID,-0.0169808,VALID,18.619,VALID,50,VALID,0.768714,
2007-11-05, 00:42:00,VALID,917.411,VALID,0,VALID,98.5099,VALID,-0.0339617,VALID,18.6186,VALID,45,VALID,0.638951,
2007-11-05, 00:43:00,VALID,917.396,VALID,0,VALID,98.3179,VALID,-0.0339617,VALID,18.6156,VALID,60,VALID,1.06014,
2007-11-05, 00:44:00,VALID,917.377,VALID,0,VALID,98.2009,VALID,-0.0169808,VALID,18.5993,VALID,67,VALID,1.05964,
2007-11-05, 00:45:00,VALID,917.359,VALID,0,VALID,98.337,VALID,0,VALID,18.6061,VALID,60,VALID,0.485978,
2007-11-05, 00:46:00,VALID,917.343,VALID,0,VALID,98.3726,VALID,0,VALID,18.5926,VALID,60,VALID,0.305831,
2007-11-05, 00:47:00,VALID,917.338,VALID,0,VALID,98.4591,VALID,-0.0679233,VALID,18.5989,VALID,60,VALID,0.594131,
2007-11-05, 00:48:00,VALID,917.342,VALID,0,VALID,98.4591,VALID,-0.0339617,VALID,18.5801,VALID,60,VALID,0.717226,
2007-11-05, 00:49:00,VALID,917.344,VALID,0,VALID,98.7236,VALID,-0.0509425,VALID,18.5866,VALID,58,VALID,0.492588,
2007-11-05, 00:50:00,VALID,917.346,VALID,0,VALID,98.6854,VALID,-0.0169808,VALID,18.5667,VALID,58,VALID,0.146875,
2007-11-05, 00:51:00,VALID,917.34,VALID,0,VALID,98.7655,VALID,0,VALID,18.5669,VALID,58,VALID,0.133681,
2007-11-05, 00:52:00,VALID,917.349,VALID,0,VALID,98.9194,VALID,-0.0509425,VALID,18.5572,VALID,58,VALID,0.0479403,
2007-11-05, 00:53:00,VALID,917.344,VALID,0,VALID,98.9728,VALID,-0.0509425,VALID,18.544,VALID,58,VALID,0.0623302,
2007-11-05, 00:54:00,VALID,917.341,VALID,0,VALID,99.1419,VALID,-0.0679233,VALID,18.5315,VALID,58,VALID,0.0202753,
2007-11-05, 00:55:00,VALID,917.346,VALID,0,VALID,99.2309,VALID,-0.0169808,VALID,18.521,VALID,58,VALID,0,
2007-11-05, 00:56:00,VALID,917.323,VALID,0,VALID,99.1674,VALID,-0.0169808,VALID,18.4921,VALID,58,VALID,0.0330078,
2007-11-05, 00:57:00,VALID,917.288,VALID,0,VALID,99.1635,VALID,-0.0169808,VALID,18.4789,VALID,72,VALID,0.707031,
2007-11-05, 00:58:00,VALID,917.268,VALID,0,VALID,99.0211,VALID,-0.0169808,VALID,18.4759,VALID,72,VALID,0.798874,
2007-11-05, 00:59:00,VALID,917.253,VALID,0,VALID,98.9741,VALID,0,VALID,18.5118,VALID,64,VALID,0.481889,
2007-11-05, 01:00:00,VALID,917.228,VALID,0,VALID,98.9537,VALID,-0.0169808,VALID,18.524,VALID,36,VALID,0.485609,
2007-11-05, 01:01:00,VALID,917.2,VALID,0,VALID,99.0008,VALID,-0.0509425,VALID,18.547,VALID,1,VALID,0.175864,
2007-11-05, 01:02:00,VALID,917.177,VALID,0,VALID,98.9919,VALID,-0.0339617,VALID,18.5502,VALID,1,VALID,0.111607,
2007-11-05, 01:03:00,VALID,917.161,VALID,0,VALID,98.9804,VALID,-0.0339617,VALID,18.5831,VALID,39,VALID,0.626999,
2007-11-05, 01:04:00,VALID,917.158,VALID,0,VALID,98.7693,VALID,-0.0339617,VALID,18.6054,VALID,63,VALID,0.744141,
2007-11-05, 01:05:00,VALID,917.153,VALID,0,VALID,98.6282,VALID,-0.0169808,VALID,18.6313,VALID,59,VALID,0.539236,
2007-11-05, 01:06:00,VALID,917.132,VALID,0,VALID,98.543,VALID,0,VALID,18.6341,VALID,52,VALID,0.510174,
2007-11-05, 01:07:00,VALID,917.096,VALID,0,VALID,98.365,VALID,0.0169808,VALID,18.6081,VALID,61,VALID,0.873547,
2007-11-05, 01:08:00,VALID,917.057,VALID,0,VALID,98.3205,VALID,0,VALID,18.6116,VALID,78,VALID,1.06213,
2007-11-05, 01:09:00,VALID,917.033,VALID,0,VALID,98.1997,VALID,-0.0169808,VALID,18.6111,VALID,79,VALID,1.1548,
2007-11-05, 01:10:00,VALID,917.019,VALID,0,VALID,98.1234,VALID,-0.0169808,VALID,18.6341,VALID,69,VALID,0.655705,
2007-11-05, 01:11:00,VALID,916.998,VALID,0,VALID,98.2251,VALID,-0.0509425,VALID,18.667,VALID,41,VALID,0.757086,
2007-11-05, 01:12:00,VALID,916.974,VALID,0,VALID,98.0293,VALID,-0.0509425,VALID,18.6542,VALID,46,VALID,0.60026,
2007-11-05, 01:13:00,VALID,916.948,VALID,0,VALID,97.9848,VALID,0,VALID,18.6475,VALID,69,VALID,0.985328,
2007-11-05, 01:14:00,VALID,916.919,VALID,0,VALID,97.9886,VALID,-0.0169808,VALID,18.664,VALID,77,VALID,1.10014,
2007-11-05, 01:15:00,VALID,916.907,VALID,0,VALID,98.0077,VALID,-0.0339617,VALID,18.6732,VALID,70,VALID,0.915661,
2007-11-05, 01:16:00,VALID,916.879,VALID,0,VALID,98.1119,VALID,-0.0509425,VALID,18.673,VALID,51,VALID,0.785156,
2007-11-05, 01:17:00,VALID,916.861,VALID,0,VALID,98.1539,VALID,-0.0339617,VALID,18.6834,VALID,52,VALID,0.908854,
2007-11-05, 01:18:00,VALID,916.843,VALID,0,VALID,98.1234,VALID,-0.0169808,VALID,18.6892,VALID,68,VALID,0.808789,
2007-11-05, 01:19:00,VALID,916.836,VALID,0,VALID,98.276,VALID,-0.0509425,VALID,18.6899,VALID,50,VALID,0.847751,
2007-11-05, 01:20:00,VALID,916.827,VALID,0,VALID,98.3535,VALID,0,VALID,18.6925,VALID,49,VALID,0.689977,
2007-11-05, 01:21:00,VALID,916.83,VALID,0,VALID,98.4311,VALID,0,VALID,18.6962,VALID,45,VALID,0.801153,
2007-11-05, 01:22:00,VALID,916.829,VALID,0,VALID,98.4069,VALID,0,VALID,18.6832,VALID,45,VALID,0.76835,
2007-11-05, 01:23:00,VALID,916.814,VALID,0,VALID,98.3446,VALID,0,VALID,18.6635,VALID,57,VALID,1.04859,
2007-11-05, 01:24:00,VALID,916.821,VALID,0,VALID,98.4527,VALID,0,VALID,18.6501,VALID,58,VALID,1.12138,
2007-11-05, 01:25:00,VALID,916.832,VALID,0,VALID,98.5875,VALID,-0.0169808,VALID,18.647,VALID,56,VALID,0.891622,
2007-11-05, 01:26:00,VALID,916.825,VALID,0,VALID,98.6435,VALID,0,VALID,18.647,VALID,56,VALID,0.766533,
2007-11-05, 01:27:00,VALID,916.816,VALID,0,VALID,98.6549,VALID,-0.0169808,VALID,18.6211,VALID,57,VALID,0.709263,
2007-11-05, 01:28:00,VALID,916.813,VALID,0,VALID,98.791,VALID,0,VALID,18.6149,VALID,63,VALID,0.829055,
2007-11-05, 01:29:00,VALID,916.794,VALID,0,VALID,98.9092,VALID,0,VALID,18.6503,VALID,66,VALID,1.00446,
2007-11-05, 01:30:00,VALID,916.777,VALID,0,VALID,98.8456,VALID,-0.0169808,VALID,18.68,VALID,70,VALID,0.965402,
2007-11-05, 01:31:00,VALID,916.758,VALID,0,VALID,98.7668,VALID,-0.0339617,VALID,18.6987,VALID,64,VALID,1.02108,
2007-11-05, 01:32:00,VALID,916.747,VALID,0,VALID,98.6409,VALID,-0.0339617,VALID,18.7386,VALID,62,VALID,1.06463,
2007-11-05, 01:33:00,VALID,916.738,VALID,0,VALID,98.5633,VALID,0,VALID,18.7576,VALID,63,VALID,0.837941,
2007-11-05, 01:34:00,VALID,916.74,VALID,0,VALID,98.5544,VALID,0.0169808,VALID,18.7671,VALID,58,VALID,0.939135,
2007-11-05, 01:35:00,VALID,916.714,VALID,0,VALID,98.5735,VALID,0,VALID,18.78,VALID,61,VALID,1.13876,
2007-11-05, 01:36:00,VALID,916.699,VALID,0,VALID,98.6028,VALID,-0.0169808,VALID,18.79,VALID,57,VALID,1.14121,
2007-11-05, 01:37:00,VALID,916.693,VALID,0,VALID,98.6167,VALID,0.0169808,VALID,18.8157,VALID,59,VALID,1.15767,
2007-11-05, 01:38:00,VALID,916.69,VALID,0,VALID,98.5672,VALID,0,VALID,18.8317,VALID,51,VALID,0.966704,
2007-11-05, 01:39:00,VALID,916.664,VALID,0,VALID,98.5633,VALID,0,VALID,18.8576,VALID,47,VALID,0.665665,
2007-11-05, 01:40:00,VALID,916.662,VALID,0,VALID,98.4947,VALID,-0.0339617,VALID,18.8713,VALID,38,VALID,0.582403,
2007-11-05, 01:41:00,VALID,916.64,VALID,0,VALID,98.4082,VALID,-0.0169808,VALID,18.8516,VALID,44,VALID,0.631904,
2007-11-05, 01:42:00,VALID,916.651,VALID,0,VALID,98.5265,VALID,0,VALID,18.8349,VALID,39,VALID,0.779297,
2007-11-05, 01:43:00,VALID,916.661,VALID,0,VALID,98.5684,VALID,0,VALID,18.8414,VALID,43,VALID,0.646763,
2007-11-05, 01:44:00,VALID,916.659,VALID,0,VALID,98.6346,VALID,0.0169808,VALID,18.8479,VALID,43,VALID,0.399581,
2007-11-05, 01:45:00,VALID,916.666,VALID,0,VALID,98.632,VALID,0,VALID,18.8549,VALID,44,VALID,0.651526,
2007-11-05, 01:46:00,VALID,916.659,VALID,0,VALID,98.618,VALID,0.0169808,VALID,18.8481,VALID,48,VALID,0.621366,
2007-11-05, 01:47:00,VALID,916.647,VALID,0,VALID,98.5684,VALID,0.0169808,VALID,18.8449,VALID,62,VALID,0.606136,
2007-11-05, 01:48:00,VALID,916.658,VALID,0,VALID,98.5989,VALID,0.0339617,VALID,18.8479,VALID,62,VALID,0.514223,
2007-11-05, 01:49:00,VALID,916.641,VALID,0,VALID,98.6663,VALID,0.0169808,VALID,18.8544,VALID,62,VALID,0.648793,
2007-11-05, 01:50:00,VALID,916.639,VALID,0,VALID,98.7134,VALID,0,VALID,18.9033,VALID,62,VALID,0.192708,
2007-11-05, 01:51:00,VALID,916.629,VALID,0,VALID,98.6892,VALID,0.0169808,VALID,18.9322,VALID,62,VALID,0.107851,
2007-11-05, 01:52:00,VALID,916.621,VALID,0,VALID,98.5888,VALID,-0.0169808,VALID,18.9517,VALID,62,VALID,0.432528,
2007-11-05, 01:53:00,VALID,916.606,VALID,0,VALID,98.6002,VALID,0.0169808,VALID,18.9841,VALID,62,VALID,0.591442,
2007-11-05, 01:54:00,VALID,916.6,VALID,0,VALID,98.5494,VALID,0.0169808,VALID,19.0198,VALID,62,VALID,0.430596,
2007-11-05, 01:55:00,VALID,916.59,VALID,0,VALID,98.4985,VALID,0,VALID,19.0455,VALID,63,VALID,0.466025,
2007-11-05, 01:56:00,VALID,916.581,VALID,0,VALID,98.5227,VALID,-0.0339617,VALID,19.0553,VALID,63,VALID,0.468564,
2007-11-05, 01:57:00,VALID,916.558,VALID,0,VALID,98.4565,VALID,-0.0169808,VALID,19.0655,VALID,63,VALID,0.568004,
2007-11-05, 01:58:00,VALID,916.532,VALID,0,VALID,98.4387,VALID,-0.0339617,VALID,19.0754,VALID,63,VALID,0.461648,
2007-11-05, 01:59:00,VALID,916.509,VALID,0,VALID,98.5315,VALID,0,VALID,19.0884,VALID,63,VALID,0.111979,
2007-11-05, 02:00:00,VALID,916.5,VALID,0,VALID,98.5455,VALID,0,VALID,19.0882,VALID,61,VALID,0.647656,
2007-11-05, 02:01:00,VALID,916.506,VALID,0,VALID,98.6422,VALID,0,VALID,19.144,VALID,82,VALID,0.383492,
2007-11-05, 02:02:00,VALID,916.5,VALID,0,VALID,98.3764,VALID,-0.0339617,VALID,19.1436,VALID,82,VALID,0.387019,
2007-11-05, 02:03:00,VALID,916.495,VALID,0,VALID,98.2175,VALID,-0.0509425,VALID,19.1183,VALID,82,VALID,0.550195,
2007-11-05, 02:04:00,VALID,916.492,VALID,0,VALID,98.2772,VALID,0,VALID,19.072,VALID,78,VALID,0.694382,
2007-11-05, 02:05:00,VALID,916.497,VALID,0,VALID,98.5722,VALID,0,VALID,19.0919,VALID,69,VALID,0.943677,
2007-11-05, 02:06:00,VALID,916.494,VALID,0,VALID,98.8011,VALID,-0.0169808,VALID,19.1475,VALID,77,VALID,0.809261,
2007-11-05, 02:07:00,VALID,916.501,VALID,0,VALID,98.5544,VALID,-0.0169808,VALID,19.1273,VALID,72,VALID,0.898247,
2007-11-05, 02:08:00,VALID,916.498,VALID,0,VALID,98.5023,VALID,-0.0509425,VALID,19.1146,VALID,72,VALID,0.951367,
2007-11-05, 02:09:00,VALID,916.519,VALID,0,VALID,98.5684,VALID,-0.0339617,VALID,19.1283,VALID,71,VALID,0.908249,
2007-11-05, 02:10:00,VALID,916.531,VALID,0,VALID,98.6256,VALID,0,VALID,19.1049,VALID,63,VALID,0.844703,
2007-11-05, 02:11:00,VALID,916.539,VALID,0,VALID,98.7515,VALID,-0.0169808,VALID,19.1049,VALID,62,VALID,0.663876,
2007-11-05, 02:12:00,VALID,916.544,VALID,0,VALID,98.9334,VALID,-0.0339617,VALID,19.1176,VALID,61,VALID,0.615149,
2007-11-05, 02:13:00,VALID,916.541,VALID,0,VALID,98.9753,VALID,-0.0169808,VALID,19.1306,VALID,61,VALID,0.542259,
2007-11-05, 02:14:00,VALID,916.541,VALID,0,VALID,98.9728,VALID,-0.0679233,VALID,19.1346,VALID,61,VALID,0.345238,
2007-11-05, 02:15:00,VALID,916.533,VALID,0,VALID,99.0783,VALID,-0.0509425,VALID,19.154,VALID,61,VALID,0.625391,
2007-11-05, 02:16:00,VALID,916.532,VALID,0,VALID,99.0262,VALID,-0.0169808,VALID,19.1473,VALID,64,VALID,0.673147,
2007-11-05, 02:17:00,VALID,916.515,VALID,0,VALID,99.0198,VALID,0,VALID,19.1281,VALID,65,VALID,0.650343,
2007-11-05, 02:18:00,VALID,916.502,VALID,0,VALID,99.0656,VALID,-0.0679233,VALID,19.1118,VALID,65,VALID,0.522321,
2007-11-05, 02:19:00,VALID,916.495,VALID,0,VALID,99.1852,VALID,-0.0509425,VALID,19.0951,VALID,64,VALID,0.428416,
2007-11-05, 02:20:00,VALID,916.495,VALID,0,VALID,99.3225,VALID,-0.0849042,VALID,19.1088,VALID,56,VALID,0.594141,
2007-11-05, 02:21:00,VALID,916.482,VALID,0,VALID,99.3759,VALID,-0.0679233,VALID,19.0989,VALID,56,VALID,0.074673,
2007-11-05, 02:22:00,VALID,916.486,VALID,0,VALID,99.5043,VALID,0.0339617,VALID,19.0977,VALID,50,VALID,0.445676,
2007-11-05, 02:23:00,VALID,916.483,VALID,0,VALID,99.5081,VALID,0.0509425,VALID,19.0974,VALID,65,VALID,0.963356,
2007-11-05, 02:24:00,VALID,916.482,VALID,0,VALID,99.4725,VALID,0.0679233,VALID,19.0879,VALID,63,VALID,0.878405,
2007-11-05, 02:25:00,VALID,916.478,VALID,0,VALID,99.5247,VALID,0.0509425,VALID,19.078,VALID,63,VALID,0.544922,
2007-11-05, 02:26:00,VALID,916.48,VALID,0,VALID,99.5883,VALID,0.0169808,VALID,19.0782,VALID,57,VALID,0.694271,
2007-11-05, 02:27:00,VALID,916.476,VALID,0,VALID,99.6607,VALID,0.0339617,VALID,19.0844,VALID,65,VALID,0.901296,
2007-11-05, 02:28:00,VALID,916.475,VALID,0,VALID,99.615,VALID,0.0849042,VALID,19.0745,VALID,61,VALID,0.56359,
2007-11-05, 02:29:00,VALID,916.482,VALID,0,VALID,99.648,VALID,0.0849042,VALID,19.0575,VALID,55,VALID,0.2859,
2007-11-05, 02:30:00,VALID,916.481,VALID,0,VALID,99.7701,VALID,0.0849042,VALID,19.058,VALID,50,VALID,0.355469,
2007-11-05, 02:31:00,VALID,916.482,VALID,0,VALID,99.9657,VALID,0.0509425,VALID,19.084,VALID,44,VALID,0.536585,
2007-11-05, 02:32:00,VALID,916.483,VALID,0,VALID,99.9919,VALID,0.0509425,VALID,19.0937,VALID,38,VALID,0.320676,
2007-11-05, 02:33:00,VALID,916.467,VALID,0,VALID,99.9519,VALID,0.101885,VALID,19.0877,VALID,33,VALID,0.192587,
2007-11-05, 02:34:00,VALID,916.473,VALID,0,VALID,99.9072,VALID,0.0679233,VALID,19.0615,VALID,32,VALID,0.448847,
2007-11-05, 02:35:00,VALID,916.467,VALID,0,VALID,100,VALID,0.0679233,VALID,19.0613,VALID,32,VALID,0.448038,
2007-11-05, 02:36:00,VALID,916.452,VALID,0,VALID,99.9301,VALID,0.0679233,VALID,19.0253,VALID,24,VALID,0.604102,
2007-11-05, 02:37:00,VALID,916.453,VALID,0,VALID,99.9641,VALID,0.0509425,VALID,18.9774,VALID,22,VALID,0.547061,
2007-11-05, 02:38:00,VALID,916.457,VALID,0,VALID,100,VALID,0,VALID,18.9654,VALID,62,VALID,0.557736,
2007-11-05, 02:39:00,VALID,916.45,VALID,0,VALID,100,VALID,-0.0169808,VALID,18.9464,VALID,61,VALID,0.780705,
2007-11-05, 02:40:00,VALID,916.447,VALID,0,VALID,100,VALID,-0.0169808,VALID,18.917,VALID,68,VALID,0.889172,
2007-11-05, 02:41:00,VALID,916.446,VALID,0,VALID,100,VALID,-0.0339617,VALID,18.904,VALID,54,VALID,0.835405,
2007-11-05, 02:42:00,VALID,916.457,VALID,0,VALID,100,VALID,-0.0339617,VALID,18.907,VALID,42,VALID,0.632994,
2007-11-05, 02:43:00,VALID,916.453,VALID,0,VALID,100,VALID,-0.0509425,VALID,18.9102,VALID,32,VALID,0.111049,
2007-11-05, 02:44:00,VALID,916.437,VALID,0,VALID,100,VALID,-0.0169808,VALID,18.933,VALID,38,VALID,0.391335,
2007-11-05, 02:45:00,VALID,916.428,VALID,0,VALID,100,VALID,-0.0169808,VALID,18.9454,VALID,40,VALID,0.799964,
2007-11-05, 02:46:00,VALID,916.428,VALID,0,VALID,100,VALID,-0.0339617,VALID,18.9749,VALID,48,VALID,0.667696,
2007-11-05, 02:47:00,VALID,916.418,VALID,0,VALID,100,VALID,-0.0169808,VALID,18.9846,VALID,40,VALID,0.486737,
2007-11-05, 02:48:00,VALID,916.404,VALID,0,VALID,100,VALID,-0.0509425,VALID,18.9918,VALID,46,VALID,0.59048,
2007-11-05, 02:49:00,VALID,916.378,VALID,0,VALID,100,VALID,-0.0509425,VALID,18.9913,VALID,54,VALID,0.828125,
2007-11-05, 02:50:00,VALID,916.377,VALID,0,VALID,100,VALID,-0.0509425,VALID,19.0078,VALID,55,VALID,1.03746,
2007-11-05, 02:51:00,VALID,916.369,VALID,0,VALID,100,VALID,-0.0509425,VALID,19.0368,VALID,51,VALID,0.968164,
2007-11-05, 02:52:00,VALID,916.359,VALID,0,VALID,100,VALID,-0.0169808,VALID,19.059,VALID,54,VALID,0.815387,
2007-11-05, 02:53:00,VALID,916.348,VALID,0,VALID,100,VALID,0,VALID,19.0914,VALID,57,VALID,1.29911,
2007-11-05, 02:54:00,VALID,916.342,VALID,0,VALID,100,VALID,0.0509425,VALID,19.1204,VALID,65,VALID,1.44252,
2007-11-05, 02:55:00,VALID,916.351,VALID,0,VALID,100,VALID,0.0169808,VALID,19.1533,VALID,52,VALID,1.20613,
2007-11-05, 02:56:00,VALID,916.369,VALID,0,VALID,100,VALID,0.0169808,VALID,19.1822,VALID,37,VALID,1.1657,
2007-11-05, 02:57:00,VALID,916.377,VALID,0,VALID,100,VALID,0.0169808,VALID,19.2179,VALID,42,VALID,0.73492,
2007-11-05, 02:58:00,VALID,916.383,VALID,0,VALID,100,VALID,0.0169808,VALID,19.2534,VALID,36,VALID,0.424352,
2007-11-05, 02:59:00,VALID,916.389,VALID,0,VALID,100,VALID,0.0509425,VALID,19.3023,VALID,36,VALID,0.559338,
2007-11-05, 03:00:00,VALID,916.383,VALID,0,VALID,99.9776,VALID,0,VALID,19.2828,VALID,50,VALID,0.855369,
2007-11-05, 03:01:00,VALID,916.386,VALID,0,VALID,99.9555,VALID,0,VALID,19.2017,VALID,56,VALID,0.891183,
2007-11-05, 03:02:00,VALID,916.374,VALID,0,VALID,100,VALID,0,VALID,19.166,VALID,57,VALID,1.05432,
2007-11-05, 03:03:00,VALID,916.354,VALID,0,VALID,100,VALID,0,VALID,19.1433,VALID,69,VALID,1.23988,
2007-11-05, 03:04:00,VALID,916.369,VALID,0,VALID,100,VALID,0,VALID,19.1598,VALID,62,VALID,0.822461,
2007-11-05, 03:05:00,VALID,916.376,VALID,0,VALID,100,VALID,0.0169808,VALID,19.153,VALID,57,VALID,0.692224,
2007-11-05, 03:06:00,VALID,916.37,VALID,0,VALID,100,VALID,0.0339617,VALID,19.1398,VALID,57,VALID,0.641578,
2007-11-05, 03:07:00,VALID,916.361,VALID,0,VALID,100,VALID,0.0169808,VALID,19.1146,VALID,51,VALID,0.879616,
2007-11-05, 03:08:00,VALID,916.348,VALID,0,VALID,100,VALID,-0.0509425,VALID,19.1024,VALID,42,VALID,0.955031,
2007-11-05, 03:09:00,VALID,916.336,VALID,0,VALID,100,VALID,-0.0509425,VALID,19.0859,VALID,40,VALID,0.584666,
2007-11-05, 03:10:00,VALID,916.321,VALID,0,VALID,100,VALID,-0.0679233,VALID,19.0762,VALID,8,VALID,0.309304,
2007-11-05, 03:11:00,VALID,916.307,VALID,0,VALID,100,VALID,-0.0849042,VALID,19.0407,VALID,53,VALID,0.875888,
2007-11-05, 03:12:00,VALID,916.283,VALID,0,VALID,100,VALID,-0.0339617,VALID,19.005,VALID,55,VALID,1.04155,
2007-11-05, 03:13:00,VALID,916.268,VALID,0,VALID,100,VALID,-0.0679233,VALID,18.9948,VALID,51,VALID,0.678385,
2007-11-05, 03:14:00,VALID,916.238,VALID,0,VALID,100,VALID,-0.0509425,VALID,18.9818,VALID,54,VALID,0.191692,
2007-11-05, 03:15:00,VALID,916.214,VALID,0,VALID,100,VALID,-0.0679233,VALID,18.9788,VALID,54,VALID,0.17569,
2007-11-05, 03:16:00,VALID,916.206,VALID,0,VALID,100,VALID,-0.0339617,VALID,18.9629,VALID,54,VALID,0.43471,
2007-11-05, 03:17:00,VALID,916.192,VALID,0,VALID,100,VALID,-0.0679233,VALID,18.9596,VALID,54,VALID,0.37391,
2007-11-05, 03:18:00,VALID,916.186,VALID,0,VALID,100,VALID,-0.0339617,VALID,18.9466,VALID,54,VALID,0.322917,
2007-11-05, 03:19:00,VALID,916.171,VALID,0,VALID,100,VALID,-0.101885,VALID,18.9372,VALID,54,VALID,0.047061,
2007-11-05, 03:20:00,VALID,916.144,VALID,0,VALID,100,VALID,-0.0679233,VALID,18.9342,VALID,54,VALID,0,
2007-11-05, 03:21:00,VALID,916.112,VALID,0,VALID,100,VALID,-0.0849042,VALID,18.9172,VALID,111,VALID,0.414971,
2007-11-05, 03:22:00,VALID,916.127,VALID,0,VALID,100,VALID,-0.0339617,VALID,18.9302,VALID,71,VALID,0.22561,
2007-11-05, 03:23:00,VALID,916.11,VALID,0,VALID,100,VALID,-0.0679233,VALID,18.9334,VALID,71,VALID,0.0212054,
2007-11-05, 03:24:00,VALID,916.104,VALID,0,VALID,100,VALID,-0.0679233,VALID,18.9337,VALID,71,VALID,0.11795,
2007-11-05, 03:25:00,VALID,916.097,VALID,0,VALID,100,VALID,-0.0509425,VALID,18.9434,VALID,70,VALID,0.279762,
2007-11-05, 03:26:00,VALID,916.077,VALID,0,VALID,100,VALID,-0.0509425,VALID,18.9402,VALID,64,VALID,0.573331,
2007-11-05, 03:27:00,VALID,916.082,VALID,0,VALID,100,VALID,-0.0849042,VALID,18.9501,VALID,44,VALID,0.192522,
2007-11-05, 03:28:00,VALID,916.072,VALID,0,VALID,100,VALID,-0.0849042,VALID,18.9434,VALID,12,VALID,0.227289,
2007-11-05, 03:29:00,VALID,916.062,VALID,0,VALID,100,VALID,-0.0509425,VALID,18.9307,VALID,11,VALID,0,
2007-11-05, 03:30:00,VALID,916.047,VALID,0,VALID,100,VALID,-0.101885,VALID,18.9277,VALID,12,VALID,0.316034,
2007-11-05, 03:31:00,VALID,916.051,VALID,0,VALID,100,VALID,-0.101885,VALID,18.9402,VALID,29,VALID,0.427951,
2007-11-05, 03:32:00,VALID,916.032,VALID,0,VALID,100,VALID,-0.0849042,VALID,18.9541,VALID,29,VALID,0.056686,
2007-11-05, 03:33:00,VALID,916.027,VALID,0,VALID,100,VALID,-0.0849042,VALID,18.9439,VALID,29,VALID,0.0183594,
2007-11-05, 03:34:00,VALID,916.029,VALID,0,VALID,100,VALID,-0.0849042,VALID,18.9372,VALID,29,VALID,0,
2007-11-05, 03:35:00,VALID,916.036,VALID,0,VALID,100,VALID,-0.101885,VALID,18.9434,VALID,29,VALID,0.0255335,
2007-11-05, 03:36:00,VALID,916.022,VALID,0,VALID,100,VALID,-0.0509425,VALID,18.9531,VALID,27,VALID,0.0203887,